QPF
0.19 0.16 0.14 0.13 0.13 0.11 0.11 0.09 0.09 0.08 0.11 0.15 0.17 0.16 0.16 0.17 0.20 0.19 0.17 0.14 0.13 0.13 0.11 0.10 0.10 0.11 0.12 0.11 0.10 0.08 0.06 0.07 0.06 0.04 0.03 0.04 0.03 0.04 0.04 0.04 0.03 0.03 0.06
0.11 0.12 0.11 0.09 0.10 0.12 0.12 0.09 0.09 0.08 0.08 0.10 0.13 0.14 0.14 0.14 0.15 0.15 0.13 0.12 0.14 0.13 0.10 0.08 0.09 0.10 0.11 0.10 0.09 0.08 0.07 0.07 0.06 0.05 0.05 0.04 0.04 0.04 0.04 0.04 0.03 0.03 0.05
0.03 0.04 0.06 0.06 0.06 0.08 0.10 0.11 0.10 0.09 0.08 0.08 0.10 0.10 0.11 0.12 0.13 0.12 0.13 0.14 0.13 0.10 0.08 0.08 0.08 0.08 0.09 0.09 0.09 0.07 0.07 0.08 0.07 0.06 0.06 0.05 0.04 0.05 0.05 0.05 0.05 0.05 0.05
0.02 0.02 0.04 0.04 0.04 0.04 0.06 0.10 0.12 0.12 0.10 0.10 0.11 0.12 0.11 0.12 0.12 0.13 0.14 0.12 0.09 0.08 0.08 0.08 0.07 0.07 0.07 0.06 0.07 0.07 0.08 0.11 0.09 0.06 0.04 0.04 0.06 0.05 0.05 0.05 0.05 0.04 0.03
0.02 0.03 0.05 0.05 0.04 0.04 0.05 0.07 0.08 0.08 0.07 0.09 0.11 0.11 0.12 0.13 0.17 0.15 0.12 0.10 0.09 0.09 0.07 0.06 0.06 0.06 0.06 0.06 0.07 0.06 0.09 0.12 0.12 0.09 0.05 0.05 0.08 0.06 0.05 0.05 0.04 0.03 0.03
0.01 0.02 0.03 0.03 0.03 0.03 0.04 0.07 0.09 0.09 0.08 0.09 0.11 0.12 0.13 0.16 0.17 0.14 0.12 0.09 0.07 0.07 0.06 0.06 0.07 0.06 0.07 0.09 0.08 0.08 0.10 0.14 0.12 0.09 0.05 0.04 0.05 0.06 0.06 0.05 0.03 0.03 0.03
0.01 0.01 0.02 0.03 0.03 0.03 0.03 0.06 0.12 0.16 0.17 0.16 0.15 0.14 0.12 0.13 0.10 0.08 0.08 0.08 0.06 0.04 0.04 0.05 0.07 0.09 0.12 0.14 0.11 0.09 0.11 0.12 0.08 0.08 0.06 0.05 0.04 0.06 0.06 0.05 0.03 0.03 0.02
0.01 0.01 0.01 0.03 0.03 0.02 0.03 0.04 0.07 0.12 0.15 0.15 0.13 0.10 0.07 0.05 0.04 0.04 0.04 0.05 0.03 0.03 0.03 0.02 0.03 0.07 0.15 0.17 0.13 0.12 0.13 0.11 0.06 0.05 0.05 0.05 0.04 0.06 0.06 0.04 0.04 0.04 0.02
0.01 0.01 0.01 0.02 0.01 0.01 0.02 0.04 0.05 0.05 0.06 0.07 0.06 0.07 0.07 0.06 0.05 0.04 0.03 0.04 0.03 0.02 0.02 0.02 0.02 0.05 0.18 0.19 0.15 0.14 0.14 0.10 0.06 0.05 0.04 0.06 0.04 0.05 0.07 0.05 0.04 0.04 0.04
0.01 0.04 0.04 0.02 0.01 0.01 0.02 0.03 0.03 0.03 0.04 0.04 0.04 0.05 0.04 0.05 0.05 0.04 0.04 0.04 0.02 0.02 0.02 0.02 0.02 0.06 0.14 0.17 0.16 0.17 0.16 0.11 0.07 0.06 0.03 0.03 0.04 0.05 0.05 0.05 0.04 0.03 0.04
0.02 0.04 0.05 0.05 0.03 0.02 0.02 0.02 0.03 0.03 0.05 0.04 0.05 0.05 0.03 0.03 0.03 0.02 0.04 0.04 0.03 0.03 0.02 0.02 0.01 0.03 0.10 0.14 0.14 0.14 0.14 0.13 0.10 0.07 0.04 0.03 0.04 0.05 0.07 0.06 0.04 0.03 0.04
0.01 0.03 0.03 0.03 0.03 0.02 0.02 0.02 0.02 0.02 0.03 0.03 0.03 0.02 0.02 0.02 0.02 0.03 0.05 0.05 0.05 0.04 0.03 0.03 0.02 0.02 0.03 0.05 0.06 0.06 0.09 0.11 0.10 0.06 0.04 0.05 0.06 0.06 0.09 0.08 0.05 0.04 0.03
0.01 0.01 0.02 0.02 0.02 0.02 0.01 0.01 0.02 0.02 0.04 0.06 0.03 0.02 0.02 0.03 0.03 0.03 0.04 0.06 0.05 0.03 0.03 0.03 0.03 0.03 0.03 0.03 0.03 0.04 0.06 0.08 0.10 0.09 0.07 0.09 0.08 0.06 0.07 0.08 0.04 0.02 0.03
0.00 0.01 0.01 0.01 0.01 0.01 0.02 0.01 0.01 0.02 0.03 0.03 0.03 0.03 0.03 0.03 0.04 0.03 0.04 0.04 0.04 0.04 0.03 0.03 0.04 0.05 0.05 0.03 0.03 0.04 0.04 0.05 0.09 0.08 0.04 0.05 0.05 0.05 0.06 0.08 0.06 0.04 0.04
0.00 0.00 0.00 0.01 0.01 0.01 0.02 0.02 0.02 0.02 0.02 0.04 0.05 0.04 0.03 0.03 0.03 0.03 0.06 0.05 0.04 0.04 0.03 0.02 0.03 0.04 0.04 0.04 0.05 0.05 0.04 0.05 0.04 0.02 0.01 0.03 0.03 0.03 0.05 0.06 0.06 0.06 0.05
0.00 0.00 0.00 0.01 0.01 0.01 0.02 0.02 0.02 0.03 0.02 0.03 0.03 0.03 0.03 0.04 0.02 0.02 0.04 0.04 0.03 0.03 0.03 0.02 0.02 0.03 0.04 0.05 0.05 0.06 0.05 0.05 0.03 0.02 0.02 0.02 0.03 0.03 0.04 0.05 0.06 0.06 0.06
0.01 0.00 0.00 0.01 0.01 0.01 0.01 0.01 0.01 0.03 0.03 0.03 0.03 0.03 0.03 0.04 0.03 0.02 0.03 0.02 0.02 0.02 0.02 0.02 0.03 0.03 0.05 0.05 0.05 0.07 0.07 0.05 0.04 0.03 0.03 0.03 0.03 0.03 0.04 0.05 0.06 0.08 0.09
0.01 0.01 0.01 0.01 0.00 0.00 0.01 0.02 0.02 0.03 0.02 0.02 0.03 0.03 0.03 0.03 0.02 0.01 0.02 0.01 0.01 0.01 0.01 0.02 0.02 0.04 0.06 0.05 0.05 0.07 0.07 0.06 0.06 0.05 0.05 0.06 0.07 0.06 0.04 0.06 0.06 0.07 0.10
0.01 0.01 0.01 0.02 0.01 0.01 0.01 0.01 0.01 0.02 0.02 0.02 0.03 0.03 0.03 0.03 0.02 0.02 0.02 0.02 0.02 0.03 0.02 0.01 0.01 0.02 0.05 0.04 0.04 0.05 0.05 0.05 0.05 0.05 0.07 0.12 0.18 0.14 0.09 0.07 0.07 0.08 0.14
0.02 0.01 0.01 0.02 0.02 0.01 0.02 0.01 0.01 0.01 0.02 0.02 0.03 0.02 0.02 0.02 0.02 0.03 0.03 0.03 0.03 0.04 0.03 0.03 0.02 0.03 0.04 0.05 0.04 0.05 0.04 0.04 0.04 0.05 0.08 0.17 0.23 0.16 0.09 0.08 0.09 0.12 0.15
0.01 0.01 0.01 0.01 0.02 0.01 0.01 0.02 0.01 0.02 0.03 0.03 0.03 0.02 0.02 0.02 0.02 0.03 0.02 0.02 0.02 0.03 0.03 0.04 0.04 0.05 0.05 0.07 0.06 0.05 0.04 0.04 0.06 0.06 0.07 0.10 0.16 0.16 0.14 0.11 0.12 0.12 0.14
0.00 0.00 0.01 0.01 0.01 0.01 0.01 0.02 0.02 0.02 0.03 0.03 0.03 0.04 0.03 0.03 0.02 0.03 0.03 0.03 0.03 0.04 0.03 0.04 0.04 0.04 0.04 0.05 0.06 0.06 0.05 0.05 0.06 0.07 0.09 0.10 0.13 0.16 0.15 0.13 0.11 0.10 0.09
0.00 0.01 0.01 0.01 0.01 0.00 0.01 0.01 0.01 0.03 0.04 0.04 0.04 0.04 0.04 0.04 0.04 0.05 0.04 0.04 0.04 0.04 0.04 0.04 0.04 0.04 0.04 0.06 0.05 0.07 0.07 0.06 0.06 0.08 0.11 0.13 0.14 0.14 0.13 0.13 0.11 0.11 0.10
0.00 0.01 0.01 0.01 0.01 0.01 0.01 0.01 0.01 0.02 0.02 0.04 0.03 0.04 0.05 0.05 0.05 0.06 0.06 0.04 0.04 0.04 0.04 0.05 0.05 0.05 0.06 0.05 0.03 0.06 0.11 0.13 0.08 0.07 0.08 0.11 0.12 0.12 0.12 0.13 0.11 0.11 0.09
0.00 0.00 0.00 0.00 0.01 0.01 0.01 0.02 0.02 0.01 0.02 0.03 0.04 0.04 0.05 0.06 0.04 0.05 0.06 0.06 0.06 0.05 0.04 0.06 0.07 0.04 0.05 0.05 0.04 0.07 0.11 0.11 0.09 0.08 0.06 0.07 0.09 0.09 0.11 0.12 0.10 0.09 0.09
0.01 0.01 0.01 0.01 0.01 0.02 0.03 0.03 0.03 0.02 0.03 0.05 0.06 0.05 0.04 0.04 0.04 0.04 0.05 0.06 0.07 0.06 0.06 0.06 0.07 0.06 0.05 0.05 0.04 0.06 0.08 0.07 0.07 0.07 0.06 0.05 0.05 0.05 0.06 0.07 0.08 0.10 0.11
MSLP
1012.39 1011.68 1011.06 1010.60 1010.34 1010.23 1010.21 1010.23 1010.22 1010.17 1010.07 1009.99 1009.96 1010.04 1010.25 1010.57 1010.97 1011.39 1011.77 1012.09 1012.33 1012.50 1012.65 1012.81 1013.01 1013.27 1013.58 1013.91 1014.24 1014.55 1014.82 1015.05 1015.27 1015.50 1015.75 1016.03 1016.33 1016.63 1016.92 1017.16 1017.36 1017.51 1017.63
1012.69 1012.08 1011.53 1011.13 1010.91 1010.82 1010.81 1010.83 1010.81 1010.75 1010.66 1010.59 1010.59 1010.69 1010.92 1011.26 1011.65 1012.06 1012.41 1012.69 1012.88 1013.01 1013.11 1013.24 1013.42 1013.67 1013.97 1014.29 1014.62 1014.92 1015.19 1015.42 1015.64 1015.87 1016.13 1016.42 1016.72 1017.02 1017.30 1017.54 1017.73 1017.88 1017.99
1012.85 1012.31 1011.83 1011.49 1011.31 1011.26 1011.29 1011.33 1011.34 1011.30 1011.24 1011.19 1011.22 1011.34 1011.58 1011.91 1012.28 1012.65 1012.96 1013.19 1013.33 1013.43 1013.51 1013.62 1013.79 1014.03 1014.32 1014.65 1014.97 1015.26 1015.52 1015.76 1015.99 1016.22 1016.49 1016.78 1017.09 1017.40 1017.67 1017.91 1018.09 1018.23 1018.35
1012.86 1012.38 1011.97 1011.69 1011.58 1011.58 1011.66 1011.75 1011.81 1011.82 1011.79 1011.78 1011.82 1011.96 1012.19 1012.49 1012.83 1013.15 1013.41 1013.59 1013.71 1013.78 1013.86 1013.97 1014.15 1014.39 1014.69 1015.01 1015.32 1015.60 1015.85 1016.08 1016.31 1016.55 1016.83 1017.13 1017.44 1017.74 1018.02 1018.25 1018.43 1018.57 1018.70
1012.75 1012.33 1011.99 1011.79 1011.75 1011.83 1011.98 1012.13 1012.24 1012.29 1012.30 1012.32 1012.38 1012.51 1012.71 1012.98 1013.27 1013.55 1013.76 1013.92 1014.02 1014.10 1014.20 1014.34 1014.54 1014.80 1015.09 1015.40 1015.69 1015.95 1016.19 1016.40 1016.62 1016.87 1017.14 1017.45 1017.76 1018.06 1018.33 1018.55 1018.73 1018.88 1019.01
1012.62 1012.26 1011.99 1011.88 1011.92 1012.07 1012.28 1012.49 1012.64 1012.73 1012.77 1012.80 1012.86 1012.98 1013.16 1013.39 1013.63 1013.86 1014.05 1014.20 1014.31 1014.42 1014.55 1014.73 1014.96 1015.24 1015.54 1015.83 1016.10 1016.32 1016.53 1016.72 1016.92 1017.16 1017.43 1017.74 1018.05 1018.34 1018.60 1018.82 1018.99 1019.14 1019.27
1012.54 1012.25 1012.06 1012.03 1012.15 1012.37 1012.63 1012.87 1013.04 1013.15 1013.20 1013.23 1013.28 1013.38 1013.53 1013.72 1013.93 1014.13 1014.30 1014.45 1014.59 1014.74 1014.92 1015.14 1015.41 1015.71 1016.00 1016.27 1016.50 1016.69 1016.85 1017.02 1017.20 1017.43 1017.70 1018.00 1018.31 1018.59 1018.84 1019.04 1019.20 1019.34 1019.48
1012.56 1012.35 1012.25 1012.30 1012.49 1012.75 1013.03 1013.27 1013.44 1013.54 1013.58 1013.60 1013.64 1013.73 1013.86 1014.02 1014.21 1014.39 1014.56 1014.72 1014.88 1015.06 1015.29 1015.56 1015.85 1016.16 1016.44 1016.69 1016.88 1017.02 1017.15 1017.28 1017.44 1017.66 1017.93 1018.23 1018.53 1018.81 1019.05 1019.23 1019.38 1019.50 1019.64
1012.71 1012.58 1012.57 1012.70 1012.92 1013.20 1013.46 1013.68 1013.81 1013.88 1013.90 1013.92 1013.96 1014.04 1014.17 1014.33 1014.50 1014.68 1014.84 1015.01 1015.19 1015.39 1015.64 1015.93 1016.24 1016.54 1016.81 1017.03 1017.18 1017.29 1017.38 1017.49 1017.64 1017.86 1018.13 1018.43 1018.73 1019.01 1019.23 1019.40 1019.53 1019.64 1019.76
1012.93 1012.90 1012.97 1013.15 1013.40 1013.66 1013.89 1014.05 1014.14 1014.16 1014.17 1014.18 1014.23 1014.34 1014.48 1014.66 1014.84 1015.01 1015.17 1015.33 1015.50 1015.71 1015.96 1016.24 1016.54 1016.83 1017.08 1017.27 1017.40 1017.48 1017.55 1017.65 1017.80 1018.02 1018.29 1018.60 1018.91 1019.19 1019.41 1019.57 1019.68 1019.77 1019.88
1013.16 1013.21 1013.37 1013.59 1013.84 1014.07 1014.24 1014.33 1014.36 1014.36 1014.35 1014.38 1014.47 1014.62 1014.80 1015.01 1015.21 1015.38 1015.53 1015.67 1015.82 1016.00 1016.22 1016.48 1016.75 1017.02 1017.24 1017.41 1017.52 1017.60 1017.67 1017.76 1017.92 1018.15 1018.43 1018.76 1019.07 1019.35 1019.57 1019.73 1019.83 1019.91 1020.00
1013.30 1013.44 1013.66 1013.92 1014.15 1014.34 1014.44 1014.48 1014.46 1014.43 1014.44 1014.51 1014.66 1014.87 1015.11 1015.36 1015.58 1015.76 1015.89 1016.00 1016.11 1016.24 1016.42 1016.64 1016.88 1017.11 1017.32 1017.47 1017.58 1017.66 1017.74 1017.85 1018.01 1018.25 1018.55 1018.88 1019.20 1019.49 1019.71 1019.87 1019.97 1020.04 1020.11
1013.30 1013.53 1013.80 1014.07 1014.29 1014.42 1014.48 1014.46 1014.42 1014.40 1014.43 1014.56 1014.78 1015.06 1015.37 1015.67 1015.91 1016.09 1016.21 1016.28 1016.35 1016.44 1016.56 1016.74 1016.94 1017.15 1017.34 1017.50 1017.61 1017.70 1017.79 1017.91 1018.09 1018.33 1018.63 1018.96 1019.28 1019.57 1019.80 1019.97 1020.08 1020.15 1020.22
1013.16 1013.45 1013.75 1014.02 1014.23 1014.33 1014.35 1014.31 1014.27 1014.27 1014.35 1014.54 1014.82 1015.17 1015.54 1015.88 1016.15 1016.34 1016.44 1016.49 1016.52 1016.57 1016.66 1016.80 1016.98 1017.17 1017.36 1017.52 1017.64 1017.75 1017.85 1017.98 1018.15 1018.38 1018.66 1018.97 1019.29 1019.57 1019.81 1019.99 1020.11 1020.20 1020.27
1012.91 1013.23 1013.55 1013.83 1014.02 1014.11 1014.12 1014.09 1014.06 1014.09 1014.23 1014.47 1014.80 1015.20 1015.61 1015.97 1016.26 1016.45 1016.55 1016.59 1016.61 1016.64 1016.71 1016.84 1017.00 1017.20 1017.38 1017.55 1017.69 1017.81 1017.92 1018.04 1018.19 1018.39 1018.64 1018.91 1019.20 1019.46 1019.70 1019.89 1020.03 1020.15 1020.24
1012.61 1012.95 1013.27 1013.55 1013.74 1013.83 1013.87 1013.86 1013.88 1013.95 1014.12 1014.39 1014.75 1015.15 1015.56 1015.92 1016.21 1016.41 1016.52 1016.57 1016.61 1016.65 1016.74 1016.87 1017.04 1017.24 1017.44 1017.61 1017.76 1017.88 1017.98 1018.08 1018.20 1018.36 1018.54 1018.76 1018.99 1019.23 1019.45 1019.65 1019.82 1019.97 1020.10
1012.34 1012.67 1012.99 1013.27 1013.47 1013.60 1013.67 1013.72 1013.79 1013.90 1014.09 1014.36 1014.69 1015.06 1015.43 1015.76 1016.02 1016.22 1016.35 1016.44 1016.52 1016.61 1016.73 1016.89 1017.08 1017.29 1017.50 1017.68 1017.83 1017.94 1018.03 1018.10 1018.17 1018.27 1018.39 1018.53 1018.70 1018.89 1019.09 1019.28 1019.48 1019.66 1019.84
1012.14 1012.46 1012.77 1013.05 1013.28 1013.45 1013.59 1013.71 1013.83 1013.97 1014.16 1014.39 1014.66 1014.95 1015.24 1015.51 1015.74 1015.94 1016.09 1016.23 1016.37 1016.52 1016.70 1016.90 1017.12 1017.34 1017.55 1017.73 1017.87 1017.97 1018.04 1018.08 1018.11 1018.14 1018.19 1018.26 1018.36 1018.49 1018.65 1018.83 1019.04 1019.25 1019.47
1012.01 1012.31 1012.61 1012.90 1013.17 1013.41 1013.63 1013.82 1014.00 1014.17 1014.34 1014.51 1014.69 1014.87 1015.06 1015.24 1015.42 1015.60 1015.79 1015.98 1016.19 1016.41 1016.64 1016.88 1017.12 1017.35 1017.56 1017.73 1017.86 1017.95 1018.00 1018.02 1018.02 1018.00 1017.99 1018.00 1018.03 1018.10 1018.21 1018.36 1018.56 1018.78 1019.03
1011.92 1012.19 1012.48 1012.79 1013.11 1013.42 1013.73 1014.00 1014.24 1014.43 1014.58 1014.69 1014.77 1014.83 1014.90 1014.99 1015.12 1015.28 1015.49 1015.73 1016.00 1016.28 1016.57 1016.84 1017.09 1017.31 1017.50 1017.66 1017.78 1017.86 1017.91 1017.93 1017.92 1017.88 1017.84 1017.79 1017.76 1017.77 1017.82 1017.93 1018.10 1018.32 1018.57
1011.79 1012.05 1012.34 1012.67 1013.04 1013.42 1013.81 1014.17 1014.47 1014.70 1014.83 1014.88 1014.87 1014.83 1014.79 1014.79 1014.86 1015.00 1015.23 1015.51 1015.82 1016.15 1016.46 1016.75 1017.00 1017.20 1017.37 1017.51 1017.62 1017.72 1017.78 1017.82 1017.83 1017.81 1017.75 1017.69 1017.62 1017.57 1017.57 1017.62 1017.73 1017.92 1018.15
1011.58 1011.84 1012.14 1012.48 1012.89 1013.34 1013.81 1014.24 1014.61 1014.87 1015.00 1015.02 1014.94 1014.82 1014.70 1014.64 1014.66 1014.78 1015.01 1015.31 1015.66 1016.01 1016.33 1016.61 1016.84 1017.02 1017.16 1017.29 1017.40 1017.52 1017.62 1017.71 1017.77 1017.79 1017.76 1017.70 1017.61 1017.53 1017.47 1017.46 1017.51 1017.64 1017.82
1011.30 1011.56 1011.85 1012.20 1012.63 1013.12 1013.65 1014.15 1014.58 1014.88 1015.04 1015.04 1014.94 1014.77 1014.61 1014.50 1014.49 1014.60 1014.82 1015.13 1015.48 1015.82 1016.14 1016.39 1016.59 1016.75 1016.87 1016.99 1017.12 1017.28 1017.44 1017.59 1017.73 1017.81 1017.84 1017.81 1017.73 1017.64 1017.54 1017.47 1017.46 1017.51 1017.62
1010.97 1011.23 1011.51 1011.85 1012.27 1012.78 1013.34 1013.88 1014.36 1014.71 1014.90 1014.93 1014.83 1014.65 1014.47 1014.35 1014.32 1014.41 1014.62 1014.91 1015.25 1015.57 1015.86 1016.09 1016.26 1016.39 1016.51 1016.63 1016.79 1016.99 1017.22 1017.45 1017.67 1017.84 1017.94 1017.96 1017.93 1017.84 1017.73 1017.63 1017.56 1017.54 1017.57
1010.70 1010.95 1011.19 1011.50 1011.89 1012.38 1012.93 1013.49 1014.00 1014.38 1014.61 1014.67 1014.59 1014.44 1014.26 1014.13 1014.09 1014.17 1014.35 1014.62 1014.92 1015.22 1015.48 1015.68 1015.83 1015.95 1016.07 1016.22 1016.41 1016.66 1016.95 1017.26 1017.56 1017.81 1017.99 1018.09 1018.11 1018.06 1017.97 1017.87 1017.77 1017.70 1017.68
1010.57 1010.80 1011.00 1011.25 1011.59 1012.02 1012.54 1013.08 1013.58 1013.97 1014.22 1014.32 1014.27 1014.13 1013.97 1013.84 1013.78 1013.83 1013.98 1014.21 1014.47 1014.74 1014.97 1015.16 1015.31 1015.44 1015.58 1015.76 1015.99 1016.28 1016.63 1017.00 1017.36 1017.68 1017.94 1018.12 1018.21 1018.23 1018.20 1018.13 1018.04 1017.97 1017.91
Thickness
5771 5775 5777 5777 5778 5778 5778 5778 5778 5778 5777 5777 5776 5775 5774 5773 5772 5771 5770 5769 5768 5768 5767 5767 5766 5764 5763 5762 5761 5759 5758 5757 5755 5754 5752 5750 5748 5747 5746 5745 5743 5741 5740
5775 5776 5777 5777 5777 5777 5777 5777 5776 5776 5775 5775 5774 5773 5772 5771 5770 5769 5768 5767 5766 5766 5765 5765 5764 5763 5762 5761 5759 5758 5756 5755 5753 5752 5750 5748 5747 5745 5744 5743 5741 5740 5738
5776 5776 5776 5776 5775 5775 5775 5775 5775 5774 5773 5773 5772 5771 5770 5769 5768 5767 5766 5765 5764 5764 5764 5763 5762 5761 5760 5759 5757 5756 5755 5753 5751 5750 5749 5747 5745 5744 5743 5741 5740 5738 5737
5777 5776 5775 5775 5774 5774 5774 5773 5773 5772 5772 5771 5770 5769 5768 5767 5766 5765 5765 5764 5763 5763 5762 5762 5761 5759 5758 5757 5756 5755 5753 5751 5750 5748 5747 5745 5744 5742 5741 5739 5738 5737 5735
5777 5776 5775 5774 5774 5773 5773 5772 5772 5771 5770 5770 5769 5768 5766 5765 5764 5764 5763 5763 5762 5762 5761 5760 5759 5758 5757 5756 5755 5754 5752 5751 5749 5747 5745 5744 5743 5741 5739 5738 5736 5735 5734
5777 5776 5775 5774 5773 5772 5771 5771 5770 5769 5769 5768 5767 5766 5765 5764 5763 5763 5762 5761 5760 5760 5759 5759 5758 5757 5756 5755 5754 5753 5751 5750 5748 5746 5744 5743 5741 5739 5738 5736 5735 5734 5733
5777 5776 5774 5773 5772 5771 5770 5770 5769 5768 5767 5766 5765 5764 5763 5763 5762 5761 5761 5759 5759 5758 5758 5757 5757 5757 5756 5754 5753 5752 5751 5749 5747 5746 5744 5742 5740 5739 5737 5735 5734 5732 5731
5778 5776 5774 5773 5772 5770 5770 5769 5768 5766 5765 5765 5764 5763 5762 5762 5761 5760 5759 5758 5758 5757 5757 5757 5757 5756 5755 5754 5753 5752 5750 5749 5747 5746 5743 5741 5739 5738 5736 5734 5733 5731 5730
5779 5776 5775 5773 5771 5770 5769 5767 5766 5765 5764 5763 5763 5761 5760 5760 5759 5759 5758 5758 5757 5757 5756 5756 5756 5756 5755 5754 5753 5752 5750 5749 5747 5745 5742 5741 5739 5737 5735 5734 5732 5731 5729
5778 5777 5775 5773 5771 5770 5768 5766 5765 5764 5763 5763 5761 5760 5759 5758 5758 5757 5757 5757 5756 5756 5756 5755 5755 5755 5755 5754 5753 5752 5750 5748 5746 5744 5742 5740 5739 5737 5735 5733 5732 5730 5729
5777 5776 5775 5773 5771 5770 5768 5766 5764 5764 5763 5762 5760 5759 5758 5757 5757 5756 5756 5756 5755 5755 5755 5754 5754 5754 5754 5753 5752 5752 5750 5748 5746 5744 5742 5741 5739 5737 5735 5733 5731 5730 5728
5776 5776 5776 5774 5772 5770 5769 5766 5764 5763 5762 5761 5759 5758 5757 5756 5756 5755 5755 5755 5754 5754 5754 5754 5754 5754 5753 5753 5752 5751 5750 5748 5746 5745 5743 5741 5739 5738 5736 5734 5732 5730 5728
5781 5780 5778 5775 5773 5771 5769 5766 5764 5763 5761 5760 5759 5758 5756 5755 5755 5754 5754 5754 5753 5753 5753 5753 5753 5753 5753 5753 5752 5751 5750 5748 5746 5745 5743 5741 5740 5738 5736 5734 5732 5730 5729
5784 5782 5781 5778 5775 5773 5771 5768 5766 5764 5761 5760 5759 5758 5756 5755 5754 5754 5753 5753 5752 5752 5752 5752 5753 5753 5753 5753 5752 5751 5749 5748 5746 5745 5743 5742 5740 5738 5736 5734 5732 5731 5729
5786 5785 5784 5781 5778 5775 5772 5770 5768 5765 5763 5761 5760 5759 5757 5755 5754 5754 5753 5752 5752 5752 5752 5752 5752 5753 5752 5753 5752 5751 5750 5748 5747 5745 5744 5742 5741 5739 5736 5735 5733 5731 5730
5790 5788 5787 5784 5781 5778 5775 5772 5769 5767 5765 5763 5761 5760 5758 5757 5756 5755 5754 5753 5752 5752 5753 5753 5753 5753 5753 5753 5752 5751 5750 5749 5747 5746 5744 5743 5741 5739 5737 5736 5734 5732 5730
5794 5791 5788 5786 5783 5779 5777 5774 5772 5769 5766 5764 5762 5761 5759 5758 5757 5756 5754 5753 5753 5753 5753 5753 5753 5753 5753 5752 5751 5751 5750 5749 5747 5746 5744 5743 5741 5739 5738 5736 5735 5733 5732
5797 5793 5790 5789 5785 5781 5778 5775 5773 5770 5768 5765 5764 5762 5761 5760 5758 5757 5755 5754 5754 5753 5753 5752 5752 5751 5750 5750 5750 5750 5750 5749 5748 5746 5744 5742 5741 5739 5738 5737 5736 5735 5733
5800 5795 5791 5789 5786 5783 5780 5776 5773 5771 5768 5766 5765 5763 5762 5760 5759 5757 5756 5755 5754 5753 5752 5752 5751 5750 5748 5748 5749 5749 5749 5749 5748 5747 5745 5743 5742 5740 5739 5738 5737 5736 5735
5802 5798 5794 5790 5787 5784 5780 5777 5774 5771 5769 5767 5765 5764 5763 5761 5760 5758 5757 5756 5754 5752 5751 5751 5750 5749 5748 5748 5749 5748 5748 5748 5748 5747 5745 5744 5742 5741 5739 5738 5738 5737 5735
5802 5798 5794 5790 5787 5784 5779 5775 5771 5769 5769 5768 5766 5765 5764 5762 5760 5759 5758 5756 5754 5752 5751 5751 5750 5748 5747 5748 5744 5742 5745 5747 5747 5746 5745 5744 5743 5742 5740 5739 5738 5737 5735
5803 5799 5796 5792 5788 5785 5782 5778 5775 5772 5770 5769 5768 5766 5765 5763 5762 5760 5758 5756 5755 5753 5752 5751 5749 5746 5746 5747 5742 5736 5733 5736 5741 5745 5744 5743 5743 5742 5740 5739 5737 5736 5735
5805 5801 5798 5794 5790 5787 5783 5779 5775 5771 5769 5767 5766 5765 5766 5765 5763 5761 5760 5758 5756 5754 5752 5751 5750 5748 5744 5746 5745 5738 5730 5727 5732 5738 5742 5742 5742 5741 5740 5738 5737 5736 5734
5809 5806 5801 5796 5791 5787 5784 5779 5773 5768 5764 5765 5766 5766 5766 5766 5764 5762 5761 5759 5757 5755 5754 5753 5753 5750 5747 5743 5744 5744 5741 5738 5731 5729 5735 5739 5740 5739 5739 5738 5736 5735 5733
5812 5807 5802 5797 5792 5788 5784 5780 5775 5771 5769 5768 5767 5766 5766 5766 5765 5763 5762 5760 5758 5756 5755 5754 5753 5751 5749 5746 5744 5743 5741 5739 5737 5730 5727 5732 5735 5737 5737 5736 5735 5734 5732
5812 5807 5802 5796 5792 5789 5785 5781 5777 5773 5770 5768 5766 5765 5764 5764 5764 5764 5763 5761 5759 5758 5756 5755 5754 5752 5750 5749 5747 5744 5741 5738 5735 5732 5729 5728 5728 5731 5734 5734 5734 5733 5731